| time (UTC) | temp C | wind direction | speed KPH | gust KPH | rain 1hr cm | rain 24hr cm | rain mn cm | humidity % | barometer mb |
| 20260906213009 | 32 | 221 | 0.0 | 6.4 | 0.00 | 0.00 | 0.00 | 38 | 1016.4 |
| 20260906212501 | 31 | 68 | 4.8 | 6.4 | 0.00 | 0.00 | 0.00 | 37 | 1016.7 |
| 20260906211957 | 33 | 255 | 6.4 | 6.4 | 0.00 | 0.00 | 0.00 | 35 | 1016.6 |
| 20260906211452 | 32 | 154 | 1.6 | 6.4 | 0.00 | 0.00 | 0.00 | 37 | 1016.6 |
| 20260906210948 | 32 | 183 | 3.2 | 3.2 | 0.00 | 0.00 | 0.00 | 35 | 1016.8 |
| 20260906210443 | 33 | 322 | 3.2 | 3.2 | 0.00 | 0.00 | 0.00 | 34 | 1016.8 |
| 20260906205942 | 32 | 312 | 1.6 | 3.2 | 0.00 | 0.00 | 0.00 | 35 | 1016.8 |
| 20260906205438 | 31 | 262 | 1.6 | 6.4 | 0.00 | 0.00 | 0.00 | 37 | 1017.0 |
| 20260906204934 | 32 | 228 | 6.4 | 8.0 | 0.00 | 0.00 | 0.00 | 36 | 1016.8 |
| 20260906204434 | 31 | 88 | 1.6 | 8.0 | 0.00 | 0.00 | 0.00 | 39 | 1017.2 |
| 20260906203932 | 31 | 326 | 3.2 | 9.7 | 0.00 | 0.00 | 0.00 | 40 | 1017.2 |
| 20260906203428 | 30 | 116 | 1.6 | 8.0 | 0.00 | 0.00 | 0.00 | 41 | 1017.0 |
| 20260906202925 | 31 | 111 | 6.4 | 8.0 | 0.00 | 0.00 | 0.00 | 40 | 1017.4 |
| 20260906202424 | 30 | 186 | 3.2 | 6.4 | 0.00 | 0.00 | 0.00 | 41 | 1017.4 |
| 20260906201920 | 30 | 109 | 3.2 | 9.7 | 0.00 | 0.00 | 0.00 | 43 | 1017.2 |
| 20260906201413 | 30 | 68 | 6.4 | 9.7 | 0.00 | 0.00 | 0.00 | 41 | 1017.2 |
| 20260906200909 | 30 | 88 | 3.2 | 6.4 | 0.00 | 0.00 | 0.00 | 42 | 1017.4 |
| 20260906200400 | 30 | 138 | 3.2 | 12.9 | 0.00 | 0.00 | 0.00 | 42 | 1017.6 |
| 20260906195900 | 30 | 85 | 1.6 | 6.4 | 0.00 | 0.00 | 0.00 | 42 | 1017.6 |
| 20260906195356 | 30 | 293 | 0.0 | 6.4 | 0.00 | 0.00 | 0.00 | 45 | 1017.6 |
| 20260906194852 | 30 | 239 | 1.6 | 14.5 | 0.00 | 0.00 | 0.00 | 44 | 1017.4 |
| 20260906194348 | 30 | 289 | 1.6 | 3.2 | 0.00 | 0.00 | 0.00 | 44 | 1017.9 |
| 20260906193842 | 30 | 96 | 11.3 | 11.3 | 0.00 | 0.00 | 0.00 | 45 | 1017.5 |
| 20260906193332 | 29 | 61 | 6.4 | 12.9 | 0.00 | 0.00 | 0.00 | 46 | 1017.7 |
| 20260906192828 | 30 | 91 | 4.8 | 9.7 | 0.00 | 0.00 | 0.00 | 43 | 1017.7 |
| 20260906192327 | 29 | 98 | 4.8 | 6.4 | 0.00 | 0.00 | 0.00 | 44 | 1017.9 |
| 20260906191826 | 30 | 133 | 4.8 | 14.5 | 0.00 | 0.00 | 0.00 | 45 | 1017.7 |
| 20260906191316 | 29 | 333 | 0.0 | 11.3 | 0.00 | 0.00 | 0.00 | 42 | 1018.0 |
| 20260906190816 | 29 | 69 | 3.2 | 4.8 | 0.00 | 0.00 | 0.00 | 45 | 1018.0 |
| 20260906190315 | 28 | 70 | 6.4 | 12.9 | 0.00 | 0.00 | 0.00 | 45 | 1018.2 |
| 20260906185815 | 28 | 359 | 1.6 | 6.4 | 0.00 | 0.00 | 0.00 | 46 | 1018.3 |
| 20260906185314 | 28 | 32 | 0.0 | 3.2 | 0.00 | 0.00 | 0.00 | 44 | 1018.5 |
| 20260906184809 | 28 | 125 | 0.0 | 6.4 | 0.00 | 0.00 | 0.00 | 45 | 1018.5 |
| 20260906184304 | 28 | 115 | 3.2 | 6.4 | 0.00 | 0.00 | 0.00 | 48 | 1018.8 |
| 20260906183759 | 28 | 165 | 0.0 | 11.3 | 0.00 | 0.00 | 0.00 | 48 | 1018.5 |
| 20260906183256 | 28 | 73 | 9.7 | 9.7 | 0.00 | 0.00 | 0.00 | 48 | 1019.1 |
| 20260906182755 | 27 | 75 | 4.8 | 8.0 | 0.00 | 0.00 | 0.00 | 50 | 1019.1 |
| 20260906182251 | 27 | 129 | 3.2 | 11.3 | 0.00 | 0.00 | 0.00 | 50 | 1019.0 |
| 20260906181746 | 27 | 118 | 9.7 | 11.3 | 0.00 | 0.00 | 0.00 | 50 | 1019.2 |
| 20260906181242 | 26 | 111 | 6.4 | 9.7 | 0.00 | 0.00 | 0.00 | 52 | 1019.5 |
| 20260906180737 | 27 | 72 | 8.0 | 9.7 | 0.00 | 0.00 | 0.00 | 52 | 1019.5 |
| 20260906180232 | 27 | 50 | 4.8 | 6.4 | 0.00 | 0.00 | 0.00 | 52 | 1019.5 |
| 20260906175729 | 27 | 69 | 6.4 | 9.7 | 0.00 | 0.00 | 0.00 | 52 | 1019.6 |
| 20260906175225 | 27 | 107 | 1.6 | 1.6 | 0.00 | 0.00 | 0.00 | 51 | 1019.9 |
| 20260906174723 | 27 | 242 | 4.8 | 4.8 | 0.00 | 0.00 | 0.00 | 53 | 1020.1 |
| 20260906174218 | 27 | 234 | 1.6 | 6.4 | 0.00 | 0.00 | 0.00 | 53 | 1020.1 |
| 20260906173714 | 27 | 206 | 1.6 | 9.7 | 0.00 | 0.00 | 0.00 | 52 | 1019.9 |
| 20260906173209 | 27 | 223 | 1.6 | 4.8 | 0.00 | 0.00 | 0.00 | 53 | 1019.9 |
| 20260906172703 | 27 | 195 | 1.6 | 3.2 | 0.00 | 0.00 | 0.00 | 52 | 1020.1 |
| 20260906172158 | 27 | 179 | 3.2 | 3.2 | 0.00 | 0.00 | 0.00 | 54 | 1020.4 |
| 20260906171658 | 26 | 221 | 3.2 | 4.8 | 0.00 | 0.00 | 0.00 | 55 | 1020.3 |
| 20260906171154 | 25 | 272 | 6.4 | 6.4 | 0.00 | 0.00 | 0.00 | 57 | 1020.4 |
| 20260906170650 | 25 | 260 | 1.6 | 8.0 | 0.00 | 0.00 | 0.00 | 57 | 1020.6 |
| 20260906170149 | 25 | 289 | 3.2 | 6.4 | 0.00 | 0.00 | 0.00 | 57 | 1020.9 |
| 20260906165646 | 26 | 139 | 0.0 | 3.2 | 0.00 | 0.00 | 0.00 | 54 | 1020.6 |
| 20260906165141 | 25 | 299 | 0.0 | 3.2 | 0.00 | 0.00 | 0.00 | 59 | 1020.7 |
| 20260906164639 | 25 | 10 | 0.0 | 4.8 | 0.00 | 0.00 | 0.00 | 59 | 1020.9 |
| 20260906164135 | 25 | 75 | 6.4 | 8.0 | 0.00 | 0.00 | 0.00 | 59 | 1020.6 |
| 20260906163631 | 23 | 137 | 1.6 | 8.0 | 0.00 | 0.00 | 0.00 | 61 | 1020.9 |
| 20260906163127 | 23 | 60 | 3.2 | 6.4 | 0.00 | 0.00 | 0.00 | 61 | 1020.7 |
| 20260906162624 | 24 | 349 | 3.2 | 4.8 | 0.00 | 0.00 | 0.00 | 60 | 1020.7 |
| 20260906162118 | 23 | 66 | 3.2 | 9.7 | 0.00 | 0.00 | 0.00 | 62 | 1020.7 |
| 20260906161618 | 23 | 66 | 4.8 | 8.0 | 0.00 | 0.00 | 0.00 | 61 | 1020.6 |
| 20260906161117 | 23 | 98 | 3.2 | 8.0 | 0.00 | 0.00 | 0.00 | 63 | 1020.7 |
| 20260906160616 | 23 | 99 | 3.2 | 6.4 | 0.00 | 0.00 | 0.00 | 64 | 1021.0 |
| 20260906160115 | 23 | 71 | 3.2 | 6.4 | 0.00 | 0.00 | 0.00 | 64 | 1021.0 |
| 20260906155613 | 23 | 97 | 6.4 | 9.7 | 0.00 | 0.00 | 0.00 | 63 | 1021.0 |
| 20260906155109 | 22 | 93 | 1.6 | 6.4 | 0.00 | 0.00 | 0.00 | 64 | 1020.9 |
| 20260906154604 | 23 | 60 | 4.8 | 8.0 | 0.00 | 0.00 | 0.00 | 63 | 1020.9 |
| 20260906154103 | 23 | 73 | 3.2 | 3.2 | 0.00 | 0.00 | 0.00 | 64 | 1020.9 |
| 20260906153602 | 22 | 78 | 3.2 | 6.4 | 0.00 | 0.00 | 0.00 | 67 | 1021.0 |
| 20260906153057 | 22 | 44 | 4.8 | 9.7 | 0.00 | 0.00 | 0.00 | 67 | 1021.0 |
| 20260906152557 | 21 | 92 | 6.4 | 8.0 | 0.00 | 0.00 | 0.00 | 68 | 1021.1 |
| 20260906152051 | 21 | 57 | 3.2 | 9.7 | 0.00 | 0.00 | 0.00 | 68 | 1021.2 |
| 20260906151546 | 21 | 76 | 3.2 | 4.8 | 0.00 | 0.00 | 0.00 | 69 | 1021.1 |
| 20260906151042 | 20 | 75 | 3.2 | 4.8 | 0.00 | 0.00 | 0.00 | 73 | 1021.0 |
| 20260906150537 | 20 | 54 | 1.6 | 4.8 | 0.00 | 0.00 | 0.00 | 72 | 1021.1 |
| 20260906150032 | 21 | 77 | 6.4 | 6.4 | 0.00 | 0.00 | 0.00 | 69 | 1021.4 |
| 20260906145531 | 21 | 69 | 4.8 | 8.0 | 0.00 | 0.00 | 0.00 | 69 | 1021.2 |
| 20260906145026 | 21 | 100 | 3.2 | 3.2 | 0.00 | 0.00 | 0.00 | 68 | 1021.4 |
| 20260906144520 | 21 | 42 | 3.2 | 9.7 | 0.00 | 0.00 | 0.00 | 72 | 1021.2 |
| 20260906144016 | 21 | 30 | 3.2 | 8.0 | 0.00 | 0.00 | 0.00 | 70 | 1021.2 |
| 20260906143511 | 21 | 19 | 3.2 | 4.8 | 0.00 | 0.00 | 0.00 | 69 | 1021.2 |
| 20260906143007 | 21 | 76 | 9.7 | 9.7 | 0.00 | 0.00 | 0.00 | 68 | 1021.2 |
| 20260906142501 | 21 | 63 | 1.6 | 4.8 | 0.00 | 0.00 | 0.00 | 69 | 1021.2 |
| 20260906141956 | 21 | 50 | 3.2 | 6.4 | 0.00 | 0.00 | 0.00 | 70 | 1021.2 |
| 20260906141455 | 20 | 318 | 1.6 | 4.8 | 0.00 | 0.00 | 0.00 | 72 | 1021.3 |
| 20260906140951 | 20 | 54 | 1.6 | 8.0 | 0.00 | 0.00 | 0.00 | 72 | 1021.2 |
| 20260906140445 | 20 | 82 | 3.2 | 4.8 | 0.00 | 0.00 | 0.00 | 73 | 1021.1 |
| 20260906135943 | 20 | 32 | 4.8 | 6.4 | 0.00 | 0.00 | 0.00 | 74 | 1021.1 |
| 20260906135442 | 20 | 240 | 0.0 | 3.2 | 0.00 | 0.00 | 0.00 | 74 | 1021.1 |
| 20260906134937 | 19 | 19 | 4.8 | 4.8 | 0.00 | 0.00 | 0.00 | 77 | 1021.0 |
| 20260906134432 | 18 | 82 | 3.2 | 4.8 | 0.00 | 0.00 | 0.00 | 80 | 1020.7 |
| 20260906133927 | 18 | 74 | 3.2 | 6.4 | 0.00 | 0.00 | 0.00 | 82 | 1020.9 |
| 20260906133423 | 17 | 44 | 3.2 | 4.8 | 0.00 | 0.00 | 0.00 | 83 | 1020.9 |
| 20260906132919 | 17 | 56 | 3.2 | 8.0 | 0.00 | 0.00 | 0.00 | 83 | 1020.9 |
| 20260906132414 | 17 | 81 | 3.2 | 6.4 | 0.00 | 0.00 | 0.00 | 84 | 1020.7 |
| 20260906131909 | 17 | 40 | 0.0 | 4.8 | 0.00 | 0.00 | 0.00 | 85 | 1020.7 |
| 20260906131405 | 17 | 35 | 6.4 | 6.4 | 0.00 | 0.00 | 0.00 | 85 | 1020.7 |
| 20260906130901 | 17 | 13 | 3.2 | 8.0 | 0.00 | 0.00 | 0.00 | 87 | 1020.6 |
| 20260906130359 | 16 | 60 | 3.2 | 4.8 | 0.00 | 0.00 | 0.00 | 87 | 1020.9 |
| 20260906125859 | 16 | 3 | 1.6 | 6.4 | 0.00 | 0.00 | 0.00 | 88 | 1020.6 |
| 20260906125356 | 16 | 27 | 3.2 | 4.8 | 0.00 | 0.00 | 0.00 | 89 | 1021.0 |
| 20260906124851 | 16 | 65 | 3.2 | 6.4 | 0.00 | 0.00 | 0.00 | 89 | 1020.7 |
| 20260906124347 | 16 | 42 | 6.4 | 6.4 | 0.00 | 0.00 | 0.00 | 90 | 1020.5 |
| 20260906123846 | 16 | 53 | 3.2 | 6.4 | 0.00 | 0.00 | 0.00 | 90 | 1020.6 |
| 20260906123341 | 16 | 61 | 1.6 | 6.4 | 0.00 | 0.00 | 0.00 | 91 | 1020.6 |
| 20260906122841 | 16 | 1 | 3.2 | 4.8 | 0.00 | 0.00 | 0.00 | 91 | 1020.7 |
| 20260906122336 | 16 | 49 | 0.0 | 4.8 | 0.00 | 0.00 | 0.00 | 91 | 1020.7 |
| 20260906121833 | 16 | 31 | 3.2 | 4.8 | 0.00 | 0.00 | 0.00 | 91 | 1020.5 |
| 20260906121328 | 16 | 12 | 3.2 | 3.2 | 0.00 | 0.00 | 0.00 | 91 | 1020.5 |
| 20260906120824 | 16 | 59 | 3.2 | 6.4 | 0.00 | 0.00 | 0.00 | 90 | 1020.4 |
| 20260906120320 | 16 | 55 | 3.2 | 6.4 | 0.00 | 0.00 | 0.00 | 90 | 1020.4 |
| 20260906115816 | 16 | 100 | 1.6 | 4.8 | 0.00 | 0.00 | 0.00 | 90 | 1020.5 |
| 20260906115311 | 16 | 76 | 4.8 | 4.8 | 0.00 | 0.00 | 0.00 | 90 | 1020.9 |
| 20260906114810 | 16 | 69 | 1.6 | 4.8 | 0.00 | 0.00 | 0.00 | 90 | 1020.4 |
| 20260906114305 | 16 | 82 | 3.2 | 4.8 | 0.00 | 0.00 | 0.00 | 89 | 1020.4 |
| 20260906113800 | 16 | 13 | 3.2 | 4.8 | 0.00 | 0.00 | 0.00 | 89 | 1020.7 |
| 20260906113300 | 16 | 48 | 3.2 | 4.8 | 0.00 | 0.00 | 0.00 | 89 | 1020.5 |
| 20260906112755 | 16 | 76 | 3.2 | 6.4 | 0.00 | 0.00 | 0.00 | 89 | 1020.7 |
| 20260906112251 | 16 | 45 | 4.8 | 6.4 | 0.00 | 0.00 | 0.00 | 88 | 1020.2 |
| 20260906111750 | 16 | 35 | 3.2 | 4.8 | 0.00 | 0.00 | 0.00 | 88 | 1020.2 |
| 20260906111244 | 16 | 72 | 0.0 | 4.8 | 0.00 | 0.00 | 0.00 | 88 | 1020.4 |
| 20260906110740 | 16 | 77 | 3.2 | 6.4 | 0.00 | 0.00 | 0.00 | 87 | 1020.4 |
| 20260906110236 | 16 | 82 | 3.2 | 4.8 | 0.00 | 0.00 | 0.00 | 87 | 1020.4 |
| 20260906105734 | 16 | 81 | 1.6 | 6.4 | 0.00 | 0.00 | 0.00 | 87 | 1020.2 |
| 20260906105230 | 16 | 70 | 3.2 | 6.4 | 0.00 | 0.00 | 0.00 | 87 | 1020.2 |
| 20260906104725 | 17 | 72 | 3.2 | 6.4 | 0.00 | 0.00 | 0.00 | 86 | 1020.2 |
| 20260906104224 | 17 | 37 | 6.4 | 8.0 | 0.00 | 0.00 | 0.00 | 86 | 1020.2 |
| 20260906103722 | 17 | 65 | 3.2 | 6.4 | 0.00 | 0.00 | 0.00 | 85 | 1020.2 |
| 20260906103217 | 17 | 25 | 3.2 | 6.4 | 0.00 | 0.00 | 0.00 | 84 | 1020.4 |
| 20260906102712 | 17 | 62 | 0.0 | 3.2 | 0.00 | 0.00 | 0.00 | 84 | 1020.2 |
| 20260906102211 | 17 | 322 | 0.0 | 3.2 | 0.00 | 0.00 | 0.00 | 84 | 1020.3 |
| 20260906101706 | 17 | 45 | 4.8 | 6.4 | 0.00 | 0.00 | 0.00 | 84 | 1020.4 |
| 20260906101201 | 17 | 30 | 0.0 | 3.2 | 0.00 | 0.00 | 0.00 | 83 | 1020.5 |
| 20260906100656 | 17 | 89 | 0.0 | 4.8 | 0.00 | 0.00 | 0.00 | 82 | 1020.4 |
| 20260906100151 | 18 | 59 | 3.2 | 4.8 | 0.00 | 0.00 | 0.00 | 82 | 1020.2 |
| 20260906095646 | 17 | 42 | 3.2 | 4.8 | 0.00 | 0.00 | 0.00 | 81 | 1020.4 |
| 20260906095141 | 18 | 29 | 0.0 | 4.8 | 0.00 | 0.00 | 0.00 | 81 | 1020.3 |
| 20260906094640 | 18 | 24 | 1.6 | 3.2 | 0.00 | 0.00 | 0.00 | 80 | 1020.4 |
| 20260906094136 | 18 | 65 | 0.0 | 3.2 | 0.00 | 0.00 | 0.00 | 79 | 1020.2 |
| 20260906093632 | 18 | 45 | 1.6 | 4.8 | 0.00 | 0.00 | 0.00 | 79 | 1020.1 |
| 20260906093132 | 18 | 62 | 3.2 | 8.0 | 0.00 | 0.00 | 0.00 | 78 | 1019.8 |
| 20260906092627 | 18 | 34 | 3.2 | 8.0 | 0.00 | 0.00 | 0.00 | 77 | 1019.8 |
| 20260906092122 | 18 | 45 | 1.6 | 8.0 | 0.00 | 0.00 | 0.00 | 77 | 1019.8 |
| 20260906091618 | 18 | 28 | 6.4 | 6.4 | 0.00 | 0.00 | 0.00 | 76 | 1019.5 |
| 20260906091115 | 18 | 49 | 1.6 | 6.4 | 0.00 | 0.00 | 0.00 | 77 | 1019.6 |
| 20260906090614 | 18 | 81 | 1.6 | 6.4 | 0.00 | 0.00 | 0.00 | 77 | 1019.5 |
| 20260906090109 | 18 | 56 | 3.2 | 6.4 | 0.00 | 0.00 | 0.00 | 77 | 1019.5 |
| 20260906085608 | 18 | 29 | 3.2 | 6.4 | 0.00 | 0.00 | 0.00 | 76 | 1019.8 |
| 20260906085102 | 18 | 79 | 3.2 | 4.8 | 0.00 | 0.00 | 0.00 | 76 | 1019.7 |
| 20260906084557 | 18 | 48 | 1.6 | 6.4 | 0.00 | 0.00 | 0.00 | 76 | 1019.5 |
| 20260906084056 | 18 | 60 | 3.2 | 6.4 | 0.00 | 0.00 | 0.00 | 75 | 1019.6 |
| 20260906083552 | 18 | 47 | 3.2 | 3.2 | 0.00 | 0.00 | 0.00 | 75 | 1019.6 |
| 20260906083051 | 18 | 55 | 3.2 | 6.4 | 0.00 | 0.00 | 0.00 | 75 | 1019.5 |
| 20260906082547 | 18 | 28 | 4.8 | 8.0 | 0.00 | 0.00 | 0.00 | 74 | 1019.8 |
| 20260906082042 | 18 | 73 | 3.2 | 4.8 | 0.00 | 0.00 | 0.00 | 74 | 1019.8 |
| 20260906081538 | 18 | 71 | 1.6 | 6.4 | 0.00 | 0.00 | 0.00 | 73 | 1019.5 |
| 20260906081033 | 18 | 12 | 4.8 | 4.8 | 0.00 | 0.00 | 0.00 | 73 | 1019.8 |
| 20260906080530 | 19 | 28 | 3.2 | 6.4 | 0.00 | 0.00 | 0.00 | 73 | 1019.9 |
| 20260906080025 | 18 | 89 | 0.0 | 4.8 | 0.00 | 0.00 | 0.00 | 74 | 1019.9 |
| 20260906075519 | 19 | 91 | 3.2 | 6.4 | 0.00 | 0.00 | 0.00 | 74 | 1019.8 |
| 20260906075014 | 19 | 34 | 3.2 | 6.4 | 0.00 | 0.00 | 0.00 | 74 | 1019.9 |
| 20260906074509 | 19 | 41 | 3.2 | 8.0 | 0.00 | 0.00 | 0.00 | 73 | 1019.9 |
| 20260906074007 | 20 | 50 | 1.6 | 11.3 | 0.00 | 0.00 | 0.00 | 73 | 1019.4 |
| 20260906073503 | 19 | 19 | 6.4 | 6.4 | 0.00 | 0.00 | 0.00 | 74 | 1019.5 |
| 20260906072958 | 19 | 58 | 3.2 | 8.0 | 0.00 | 0.00 | 0.00 | 74 | 1019.7 |
| 20260906072453 | 18 | 64 | 0.0 | 8.0 | 0.00 | 0.00 | 0.00 | 74 | 1019.7 |
| 20260906071949 | 18 | 167 | 3.2 | 3.2 | 0.00 | 0.00 | 0.00 | 75 | 1019.9 |
| 20260906071446 | 18 | 88 | 0.0 | 1.6 | 0.00 | 0.00 | 0.00 | 75 | 1019.8 |
| 20260906070941 | 18 | 99 | 0.0 | 4.8 | 0.00 | 0.00 | 0.00 | 75 | 1019.8 |
| 20260906070437 | 19 | 130 | 0.0 | 3.2 | 0.00 | 0.00 | 0.00 | 74 | 1019.6 |
| 20260906065932 | 19 | 240 | 0.0 | 3.2 | 0.00 | 0.00 | 0.00 | 73 | 1019.7 |
| 20260906065427 | 19 | 254 | 3.2 | 4.8 | 0.00 | 0.00 | 0.00 | 72 | 1019.5 |
| 20260906064922 | 19 | 314 | 0.0 | 3.2 | 0.00 | 0.00 | 0.00 | 71 | 1019.6 |
| 20260906064419 | 20 | 125 | 0.0 | 3.2 | 0.00 | 0.00 | 0.00 | 69 | 1019.6 |
| 20260906063918 | 20 | 240 | 0.0 | 1.6 | 0.00 | 0.00 | 0.00 | 68 | 1019.6 |
| 20260906063414 | 20 | 278 | 4.8 | 6.4 | 0.00 | 0.00 | 0.00 | 67 | 1019.7 |
| 20260906062909 | 20 | 262 | 0.0 | 4.8 | 0.00 | 0.00 | 0.00 | 68 | 1019.9 |
| 20260906062409 | 20 | 171 | 3.2 | 4.8 | 0.00 | 0.00 | 0.00 | 67 | 1019.8 |
| 20260906061904 | 20 | 54 | 3.2 | 9.7 | 0.00 | 0.00 | 0.00 | 68 | 1019.8 |
| 20260906061400 | 20 | 347 | 8.0 | 8.0 | 0.00 | 0.00 | 0.00 | 68 | 1019.8 |
| 20260906060854 | 20 | 60 | 4.8 | 8.0 | 0.00 | 0.00 | 0.00 | 67 | 1019.6 |
| 20260906060352 | 20 | 58 | 4.8 | 8.0 | 0.00 | 0.00 | 0.00 | 66 | 1019.5 |
| 20260906055848 | 20 | 52 | 3.2 | 6.4 | 0.00 | 0.00 | 0.00 | 64 | 1019.7 |
| 20260906055343 | 20 | 29 | 4.8 | 8.0 | 0.00 | 0.00 | 0.00 | 63 | 1019.6 |
| 20260906054838 | 20 | 29 | 6.4 | 9.7 | 0.00 | 0.00 | 0.00 | 62 | 1019.4 |
| 20260906054333 | 20 | 32 | 3.2 | 12.9 | 0.00 | 0.00 | 0.00 | 61 | 1019.4 |
| 20260906053830 | 21 | 49 | 4.8 | 6.4 | 0.00 | 0.00 | 0.00 | 56 | 1019.2 |
| 20260906053325 | 21 | 116 | 0.0 | 3.2 | 0.00 | 0.00 | 0.00 | 52 | 1019.5 |
| 20260906052820 | 22 | 46 | 1.6 | 3.2 | 0.00 | 0.00 | 0.00 | 52 | 1019.7 |
| 20260906052317 | 22 | 251 | 6.4 | 6.4 | 0.00 | 0.00 | 0.00 | 51 | 1019.8 |
| 20260906051814 | 22 | 230 | 1.6 | 3.2 | 0.00 | 0.00 | 0.00 | 49 | 1019.4 |
| 20260906051313 | 22 | 357 | 1.6 | 4.8 | 0.00 | 0.00 | 0.00 | 49 | 1019.5 |
| 20260906050809 | 23 | 37 | 3.2 | 6.4 | 0.00 | 0.00 | 0.00 | 48 | 1019.0 |
| 20260906050304 | 23 | 53 | 6.4 | 12.9 | 0.00 | 0.00 | 0.00 | 46 | 1019.1 |
| 20260906045802 | 23 | 63 | 9.7 | 11.3 | 0.00 | 0.00 | 0.00 | 46 | 1019.1 |
| 20260906045257 | 23 | 71 | 6.4 | 8.0 | 0.00 | 0.00 | 0.00 | 47 | 1019.4 |
| 20260906044754 | 23 | 82 | 3.2 | 4.8 | 0.00 | 0.00 | 0.00 | 44 | 1019.0 |
| 20260906044248 | 23 | 58 | 3.2 | 4.8 | 0.00 | 0.00 | 0.00 | 44 | 1018.9 |
| 20260906043744 | 23 | 15 | 3.2 | 4.8 | 0.00 | 0.00 | 0.00 | 43 | 1018.9 |
| 20260906043240 | 23 | 17 | 3.2 | 3.2 | 0.00 | 0.00 | 0.00 | 44 | 1018.9 |
| 20260906042739 | 22 | 359 | 3.2 | 3.2 | 0.00 | 0.00 | 0.00 | 46 | 1018.7 |
| 20260906042238 | 22 | 67 | 3.2 | 8.0 | 0.00 | 0.00 | 0.00 | 46 | 1018.8 |
| 20260906041734 | 22 | 40 | 3.2 | 9.7 | 0.00 | 0.00 | 0.00 | 44 | 1018.5 |
| 20260906041229 | 22 | 72 | 0.0 | 4.8 | 0.00 | 0.00 | 0.00 | 45 | 1018.7 |
| 20260906040725 | 23 | 57 | 6.4 | 6.4 | 0.00 | 0.00 | 0.00 | 42 | 1018.5 |
| 20260906040220 | 23 | 72 | 3.2 | 6.4 | 0.00 | 0.00 | 0.00 | 41 | 1018.9 |
| 20260906035715 | 23 | 21 | 3.2 | 8.0 | 0.00 | 0.00 | 0.00 | 43 | 1018.4 |
| 20260906035210 | 23 | 43 | 6.4 | 8.0 | 0.00 | 0.00 | 0.00 | 42 | 1018.4 |
| 20260906034705 | 23 | 27 | 6.4 | 9.7 | 0.00 | 0.00 | 0.00 | 40 | 1018.3 |
| 20260906034205 | 23 | 53 | 6.4 | 8.0 | 0.00 | 0.00 | 0.00 | 41 | 1018.5 |
| 20260906033701 | 24 | 56 | 3.2 | 4.8 | 0.00 | 0.00 | 0.00 | 40 | 1018.5 |
| 20260906033200 | 23 | 26 | 3.2 | 6.4 | 0.00 | 0.00 | 0.00 | 41 | 1018.2 |
| 20260906032657 | 23 | 80 | 1.6 | 6.4 | 0.00 | 0.00 | 0.00 | 41 | 1018.4 |
| 20260906032152 | 25 | 69 | 0.0 | 8.0 | 0.00 | 0.00 | 0.00 | 38 | 1018.2 |
| 20260906031648 | 25 | 81 | 3.2 | 6.4 | 0.00 | 0.00 | 0.00 | 38 | 1018.0 |
| 20260906031143 | 25 | 46 | 1.6 | 6.4 | 0.00 | 0.00 | 0.00 | 37 | 1018.0 |
| 20260906030642 | 25 | 334 | 1.6 | 4.8 | 0.00 | 0.00 | 0.00 | 37 | 1017.9 |
| 20260906030138 | 25 | 358 | 0.0 | 4.8 | 0.00 | 0.00 | 0.00 | 37 | 1018.0 |
| 20260906025636 | 25 | 47 | 0.0 | 9.7 | 0.00 | 0.00 | 0.00 | 38 | 1017.7 |
| 20260906025136 | 25 | 28 | 4.8 | 6.4 | 0.00 | 0.00 | 0.00 | 39 | 1018.1 |
| 20260906024630 | 25 | 18 | 6.4 | 8.0 | 0.00 | 0.00 | 0.00 | 38 | 1017.9 |
| 20260906024125 | 25 | 17 | 6.4 | 9.7 | 0.00 | 0.00 | 0.00 | 38 | 1018.0 |
| 20260906023621 | 25 | 10 | 4.8 | 9.7 | 0.00 | 0.00 | 0.00 | 39 | 1017.7 |
| 20260906023120 | 25 | 50 | 3.2 | 8.0 | 0.00 | 0.00 | 0.00 | 39 | 1018.0 |
| 20260906022615 | 25 | 135 | 1.6 | 6.4 | 0.00 | 0.00 | 0.00 | 39 | 1017.9 |
| 20260906022111 | 25 | 45 | 3.2 | 6.4 | 0.00 | 0.00 | 0.00 | 38 | 1018.0 |
| 20260906021607 | 26 | 27 | 0.0 | 8.0 | 0.00 | 0.00 | 0.00 | 37 | 1017.7 |
| 20260906021106 | 26 | 93 | 3.2 | 6.4 | 0.00 | 0.00 | 0.00 | 37 | 1017.4 |
| 20260906020605 | 26 | 23 | 8.0 | 9.7 | 0.00 | 0.00 | 0.00 | 37 | 1017.4 |
| 20260906020101 | 25 | 19 | 0.0 | 4.8 | 0.00 | 0.00 | 0.00 | 38 | 1017.4 |
| 20260906015559 | 25 | 92 | 1.6 | 3.2 | 0.00 | 0.00 | 0.00 | 38 | 1017.4 |
| 20260906015053 | 26 | 62 | 0.0 | 4.8 | 0.00 | 0.00 | 0.00 | 37 | 1017.4 |
| 20260906014548 | 26 | 269 | 3.2 | 4.8 | 0.00 | 0.00 | 0.00 | 36 | 1017.5 |
| 20260906014044 | 27 | 333 | 0.0 | 6.4 | 0.00 | 0.00 | 0.00 | 34 | 1017.5 |
| 20260906013539 | 27 | 42 | 1.6 | 3.2 | 0.00 | 0.00 | 0.00 | 34 | 1017.3 |
| 20260906013035 | 27 | 265 | 1.6 | 3.2 | 0.00 | 0.00 | 0.00 | 33 | 1017.3 |
| 20260906012530 | 27 | 219 | 0.0 | 3.2 | 0.00 | 0.00 | 0.00 | 32 | 1016.9 |
| 20260906012029 | 27 | 310 | 1.6 | 6.4 | 0.00 | 0.00 | 0.00 | 32 | 1017.0 |
| 20260906011526 | 28 | 251 | 0.0 | 4.8 | 0.00 | 0.00 | 0.00 | 32 | 1016.8 |
| 20260906011025 | 28 | 218 | 3.2 | 4.8 | 0.00 | 0.00 | 0.00 | 31 | 1017.0 |
| 20260906010520 | 28 | 119 | 3.2 | 4.8 | 0.00 | 0.00 | 0.00 | 31 | 1017.0 |
| 20260906010017 | 28 | 327 | 0.0 | 6.4 | 0.00 | 0.00 | 0.00 | 31 | 1016.9 |
| 20260906005515 | 28 | 245 | 0.0 | 4.8 | 0.00 | 0.00 | 0.00 | 31 | 1017.0 |
| 20260906005014 | 28 | 269 | 0.0 | 8.0 | 0.00 | 0.00 | 0.00 | 31 | 1016.7 |
| 20260906004509 | 28 | 214 | 3.2 | 6.4 | 0.00 | 0.00 | 0.00 | 31 | 1016.8 |
| 20260906004004 | 28 | 267 | 3.2 | 9.7 | 0.00 | 0.00 | 0.00 | 31 | 1017.2 |
| 20260906003459 | 29 | 216 | 1.6 | 11.3 | 0.00 | 0.00 | 0.00 | 31 | 1017.0 |
| 20260906002954 | 30 | 256 | 4.8 | 6.4 | 0.00 | 0.00 | 0.00 | 30 | 1016.6 |
| 20260906002449 | 30 | 262 | 9.7 | 14.5 | 0.00 | 0.00 | 0.00 | 30 | 1016.7 |
| 20260906001944 | 30 | 266 | 3.2 | 4.8 | 0.00 | 0.00 | 0.00 | 30 | 1016.7 |
| 20260906001440 | 30 | 231 | 0.0 | 3.2 | 0.00 | 0.00 | 0.00 | 30 | 1016.5 |
| 20260906000934 | 30 | 275 | 3.2 | 3.2 | 0.00 | 0.00 | 0.00 | 29 | 1016.6 |
| 20260906000430 | 30 | 221 | 1.6 | 3.2 | 0.00 | 0.00 | 0.00 | 30 | 1016.8 |
| 20260905235919 | 31 | 252 | 4.8 | 6.4 | 0.00 | 0.00 | 0.00 | 30 | 1016.8 |
| 20260905235418 | 31 | 254 | 1.6 | 4.8 | 0.00 | 0.00 | 0.00 | 30 | 1016.7 |
| 20260905234913 | 31 | 262 | 1.6 | 3.2 | 0.00 | 0.00 | 0.00 | 28 | 1016.8 |
| 20260905234409 | 31 | 246 | 3.2 | 6.4 | 0.00 | 0.00 | 0.00 | 27 | 1016.7 |
| 20260905233904 | 31 | 263 | 3.2 | 6.4 | 0.00 | 0.00 | 0.00 | 29 | 1016.6 |
| 20260905233359 | 31 | 259 | 1.6 | 4.8 | 0.00 | 0.00 | 0.00 | 29 | 1016.8 |
| 20260905232858 | 31 | 258 | 3.2 | 4.8 | 0.00 | 0.00 | 0.00 | 29 | 1016.2 |
| 20260905232354 | 32 | 258 | 9.7 | 9.7 | 0.00 | 0.00 | 0.00 | 27 | 1016.4 |
| 20260905231849 | 33 | 242 | 0.0 | 1.6 | 0.00 | 0.00 | 0.00 | 25 | 1016.5 |
| 20260905231344 | 33 | 235 | 1.6 | 3.2 | 0.00 | 0.00 | 0.00 | 24 | 1016.5 |
| 20260905230841 | 33 | 246 | 3.2 | 3.2 | 0.00 | 0.00 | 0.00 | 23 | 1016.2 |
| 20260905230339 | 34 | 76 | 0.0 | 3.2 | 0.00 | 0.00 | 0.00 | 22 | 1016.4 |
| 20260905225838 | 34 | 67 | 1.6 | 3.2 | 0.00 | 0.00 | 0.00 | 22 | 1016.2 |
| 20260905225333 | 33 | 15 | 0.0 | 1.6 | 0.00 | 0.00 | 0.00 | 23 | 1016.2 |
| 20260905224828 | 33 | 206 | 0.0 | 3.2 | 0.00 | 0.00 | 0.00 | 23 | 1016.0 |
| 20260905224324 | 33 | 60 | 0.0 | 4.8 | 0.00 | 0.00 | 0.00 | 22 | 1016.0 |
| 20260905223818 | 33 | 111 | 0.0 | 3.2 | 0.00 | 0.00 | 0.00 | 22 | 1016.2 |
| 20260905223316 | 34 | 96 | 3.2 | 8.0 | 0.00 | 0.00 | 0.00 | 22 | 1016.4 |
| 20260905222811 | 35 | 96 | 6.4 | 9.7 | 0.00 | 0.00 | 0.00 | 22 | 1016.0 |
| 20260905222310 | 35 | 0 | 3.2 | 3.2 | 0.00 | 0.00 | 0.00 | 21 | 1016.1 |
| 20260905221806 | 35 | 309 | 1.6 | 3.2 | 0.00 | 0.00 | 0.00 | 21 | 1016.0 |
| 20260905221303 | 35 | 281 | 1.6 | 6.4 | 0.00 | 0.00 | 0.00 | 22 | 1016.4 |
| 20260905220758 | 35 | 68 | 3.2 | 8.0 | 0.00 | 0.00 | 0.00 | 21 | 1016.2 |
| 20260905220254 | 34 | 359 | 3.2 | 8.0 | 0.00 | 0.00 | 0.00 | 22 | 1016.6 |
| 20260905215753 | 35 | 35 | 4.8 | 8.0 | 0.00 | 0.00 | 0.00 | 22 | 1016.5 |
| 20260905215249 | 34 | 104 | 3.2 | 8.0 | 0.00 | 0.00 | 0.00 | 22 | 1016.6 |
| 20260905214745 | 35 | 66 | 6.4 | 16.1 | 0.00 | 0.00 | 0.00 | 22 | 1016.5 |
| 20260905214240 | 35 | 30 | 3.2 | 8.0 | 0.00 | 0.00 | 0.00 | 21 | 1016.7 |
| 20260905213735 | 35 | 55 | 3.2 | 9.7 | 0.00 | 0.00 | 0.00 | 21 | 1016.7 |
| 20260905213232 | 35 | 5 | 4.8 | 11.3 | 0.00 | 0.00 | 0.00 | 22 | 1016.9 |